User: anonymous   Login
Location: Brunembert
(50.7122°N, 1.8935°E)
Time: 12:22:19
(UTC+00:00)
Language:

Cosmos 1437 Rocket - Orbit

View from above orbital plane
View from above orbital plane
View from above satellite
View from above satellite

Ground track
Ground track

The orbit data is extracted from the following two-line orbital elements,

1 13771U 83003B   21170.56829647  .00000096  00000-0  41148-5 0  9999
2 13771  81.1701 116.0433 0046002 191.0224 168.9999 15.10943052 94675
Epoch (UTC): 19 June 2021 13:38:20
Eccentricity: 0.0046002
inclination: 81.1701°
perigee height: 501 km
apogee height: 565 km
right ascension of ascending node: 116.0433°
argument of perigee: 191.0224°
revolutions per day: 15.10943052
mean anomaly at epoch: 168.9999°
orbit number at epoch: 9467

The dashed part of the orbit path shows where the satellite is in the earth's shadow,  

DLR